Location: Newark
(41.0000°N, 28.9500°W)
Time: 10:16:07
(UTC+00:00)

N. Korean satellite - Pass Details

Date: 26 January 2020
Orbit: 456 x 505 km, 97.2° (Epoch: 22 February)

Event Time Altitude Azimuth Distance (km) Brightness Sun altitude
Rises 06:53:06 0° 29° (NNE) 2,545 10.5 -26.2°
Reaches altitude 10° 06:55:39 10° 48° (NE) 1,670 9.8 -25.7°
Maximum altitude 06:58:14 19° 94° (E) 1,235 9.4 -25.2°
Drops below altitude 10° 07:00:49 10° 140° (SE) 1,680 9.8 -24.8°
Sets 07:03:22 0° 159° (SSE) 2,565 10.6 -24.3°
